sat.trackr.live / text

‹ back to catalog

GEESAT-2 02

NORAD 58906 · 2024-023B

PAYLOAD ACTIVE UNKNOWN

§ Identity

Operator
Country
PRC
Launch date
2024-02-02
Launch site
XICLF
Launch vehicle
Mass (kg)
RCS (m²)

External: N2YO · Heavens-Above · Gunter

§ Orbital elements

Epoch: 2026-09-22T22:36:50.974560Z

Period
97.07 min
Inclination
49.9983°
Eccentricity
0.0014683
Mean motion
14.83465364 rev/d
Perigee alt
608.1 km
Apogee alt
628.7 km
Semi-major
6,996.5 km
B*
1.5357e-4
RAAN
261.4257°
Arg perigee
12.2703°
Mean anomaly
347.8590°
Rev number
14,342

§ Raw data

GEESAT-2 021 58906U 24023B   26265.94225665  .00001048  00000+0  15357-3 0  99952 58906  49.9983 261.4257 0014683  12.2703 347.8590 14.83465364143420

JSON: /api/v1/satellites/58906 · /tle

For live sub-satellite position, see the globe view (requires WebGL).

§ Visibility from observer

Set your observer location to see the next 7 days of passes ≥ 10°. The values pass through the URL so the page stays shareable.

No JS? Fill the form by hand. The geolocation button needs JavaScript.